Regional Weather Roundup
Issued by NWS

Home | Current Version | Previous Version | Graphics & Text | Print | Product List | Glossary On
Versions: 1 2 3 4 5 6 7 8 9 10 11 12 13 14 15 16 17 18 19 20 21 22 23 24 25 26 27 28
000
ASUS45 KGTF 050210
RWRMT
MONTANA HOURLY WEATHER ROUNDUP
NATIONAL WEATHER SERVICE GREAT FALLS MT
800 PM MDT MON MAY 04 2015

NOTE: "FAIR" INDICATES FEW OR NO CLOUDS BELOW 12000 FEET WITH NO
SIGNIFICANT WEATHER AND/OR OBSTRUCTIONS TO VISIBILITY.

MTZ001>007-043-050300-
WEST OF THE DIVIDE

CITY           SKY/WX    TMP DP  RH WIND       PRES   REMARKS
KALISPELL      CLEAR     69  30  23 S5        29.73F
MISSOULA       MOCLDY    68  39  34 CALM      29.76F
BUTTE          PTCLDY    63  19  18 CALM      29.86F
DEER LODGE       N/A     63  28  27 NW7       29.86S
EUREKA           N/A     72  30  21 S3        29.73S
HAMILTON         N/A     72  32  23 NW5       29.78S
LIBBY            N/A     72  23  16 CALM      29.73S
$$

MTZ008-052>055-050300-
SOUTHWEST MONTANA

CITY           SKY/WX    TMP DP  RH WIND       PRES   REMARKS
BOZEMAN        CLEAR     67  35  30 E6        29.83S
DILLON         PTCLDY    68  25  19 W6        29.83S
$$

MTZ009-010-012-014-046-048-049-054-050300-
EAST SLOPES AND CENTRAL MONTANA

CITY           SKY/WX    TMP DP  RH WIND       PRES   REMARKS
CUT BANK       CLEAR     65  18  16 W12       29.79S
GREAT FALLS    CLEAR     66  21  18 W7        29.77F
HELENA         CLEAR     73  31  21 SE13      29.79S
$$

MTZ011-013-016-021-045-047-050-051-050300-
NORTH CENTRAL MONTANA

CITY           SKY/WX    TMP DP  RH WIND       PRES   REMARKS
HAVRE          CLEAR     72  42  34 S5        29.75F
LEWISTOWN      MOCLDY    62  43  49 CALM      29.87R
CHINOOK          N/A     73  43  33 CALM      29.76S
FORT BENTON      N/A     72  39  30 E10       29.76S
$$

MTZ017>020-022>042-056>058-061-062-050300-
EASTERN PLAINS

CITY           SKY/WX    TMP DP  RH WIND       PRES   REMARKS
BAKER          CLEAR     53  33  46 SE23G31   30.03S
BILLINGS       PTCLDY    67  40  37 S7        29.85F
GLASGOW        CLEAR     66  40  38 SE18      29.87R
LIVINGSTON     CLEAR     65  38  36 E5        29.84F
MILES CITY     CLEAR     62  40  44 SE15G29   29.91F
SIDNEY         CLEAR     61  34  36 SE21G26   30.01R
WOLF POINT     CLEAR     65  39  38 SE12G22   29.93R
BIG TIMBER       N/A     63  43  48 SE5       29.87S
FORSYTH          N/A     66  41  39 E13       29.87R
PLENTYWOOD       N/A     63  43  48 S18G26    29.97R
POPLAR           N/A     63  37  39 SE9       29.95R
$$

REGIONAL REPORTS...DAKOTAS

CITY           SKY/WX    TMP DP  RH WIND       PRES   REMARKS
WILLISTON      CLEAR     62  40  44 S13G23    30.02R
MINOT          CLEAR     63  27  25 S10       30.07R
DICKINSON      CLEAR     51  33  50 S12       30.08R
BEACH          FAIR      52  32  46 SE21G28   30.05R
CROSBY         FAIR      63  37  39 S14G21    30.01R
WATFORD CITY   FAIR      57  36  44 S18       30.03S
BISMARCK       PTCLDY    55  27  34 S3        30.12S
GRAND FORKS    CLEAR     59  28  30 CALM      30.15S
FARGO          CLEAR     63  25  23 S6        30.16S
BUFFALO SD       N/A     52  32  46 SE17      30.01S
RAPID CITY     CLOUDY    53  38  56 S7        30.09F
$$

REGIONAL REPORTS...WYOMING/IDAHO/WASHINGTON

CITY           SKY/WX    TMP DP  RH WIND       PRES   REMARKS
GILLETTE       PTCLDY    52  38  58 SE18G30   30.00R
SHERIDAN       CLOUDY    61  45  55 S16G24    29.92R
BUFFALO WY     CLOUDY    59  43  55 SE13      29.99R
CODY           PTCLDY    63  43  48 S3        29.92S
YELLOWSTONE LA   N/A     51  27  39 CALM      30.04S
IDAHO FALLS    CLOUDY    70  37  29 S12       29.86S
SALMON           N/A     72  28  20 E8        29.78F
BOISE          PTCLDY    80  34  19 NW8       29.71F
SPOKANE        PTCLDY    71  27  19 S10       29.74F
$$

REGIONAL REPORTS...ALBERTA

CITY           SKY/WX    TMP DP  RH WIND       PRES   REMARKS
EDMONTON       MOCLDY    54  32  43 E20G28    29.84S
CALGARY        PTCLDY    66  25  20 SE9       29.73F
LETHBRIDGE     PTCLDY    64  30  27 NE7       29.73F
MEDICINE HAT   PTCLDY    68  36  30 N7        29.73F
$$

REGIONAL REPORTS...SASKATCHEWAN

CITY           SKY/WX    TMP DP  RH WIND       PRES   REMARKS
SWIFT CURRENT  PTCLDY    63  41  45 SE13      29.80F
REGINA         PTCLDY    63  34  34 SE14      29.92F
SASKATOON      MOCLDY    59  28  31 E16       29.92F
$$



USA.gov is the U.S. government's official web portal to all federal, state and local government web resources and services.